Regional Weather Roundup
Issued by NWS Newport/Morehead, NC

Current Version | Previous Version | Text Only | Print | Product List | Glossary Off
Versions: 1 2 3 4 5 6 7 8 9 10 11 12 13 14 15 16 17 18 19 20 21 22 23 24 25 26 27 28 29 30 31 32 33 34 35 36 37 38 39 40 41 42 43 44 45 46 47 48 49 50
000 ASUS42 KMHX 270425 RWRMHX WEATHER ROUNDUP FOR EASTERN NORTH CAROLINA NATIONAL WEATHER SERVICE NEWPORT/MOREHEAD CITY NC 1200 AM EDT SAT AUG 27 2016 NOTE: "FAIR" INDICATES FEW OR NO CLOUDS BELOW 12,000 FEET WITH NO SIGNIFICANT WEATHER AND/OR OBSTRUCTIONS TO VISIBILITY NCZ015>017-031-032-045>047-102-103-270500- NORTH COAST CITY SKY/WX TMP DP RH WIND PRES REMARKS EDENTON CLEAR 81 74 81 S6 30.08S ELIZABETH CITY CLEAR 77 73 87 CALM 30.08R KITTY HAWK CLEAR 80 76 89 SW3 30.07R MANTEO CLEAR 80 74 81 SW9 30.08S $$ NCZ045>047-081-094-103-104-270500- CENTRAL COAST CITY SKY/WX TMP DP RH WIND PRES REMARKS FRISCO CLEAR 81 71 71 S7 30.08S $$ NCZ095-097-098-100-101-270500- SOUTHERN COAST CITY SKY/WX TMP DP RH WIND PRES REMARKS BEAUFORT CLEAR 76 71 85 CALM 30.08S CEDAR ISLAND NOT AVBL JACKSONVILLE CLEAR 74 72 93 CALM 30.08R PINEY ISLAND NOT AVBL WILMINGTON CLEAR 76 71 85 CALM 30.08S $$ NCZ011>013-027>030-043-044-078>080-089-090>093-098-270500- COASTAL PLAIN CITY SKY/WX TMP DP RH WIND PRES REMARKS AHOSKIE CLEAR 75 74 97 CALM 30.08S CLINTON CLEAR 77 74 92 CALM 30.10S ELIZABETHTOWN CLEAR 78 74 87 CALM 30.09S GOLDSBORO CLEAR N/A N/A N/A MISG N/A GREENVILLE CLEAR 81 75 83 SW8 30.10R HAVELOCK CLEAR 75 71 87 CALM 30.09S KENANSVILLE CLEAR 73 72 94 CALM 30.10R KINSTON CLEAR 76 73 90 CALM 30.10R NEW BERN CLEAR 75 72 90 CALM 30.10R RICHLANDS CLEAR 73 72 96 CALM 30.09R ROCKY MOUNT CLEAR 76 75 97 CALM 30.09R WASHINGTON CLEAR 77 73 86 SW3 30.09R WHITEVILLE CLEAR 75 72 92 CALM 30.09R $$ AMZ130-135-150-152-154-156-158-170-250-252-270-ANZ085-086-088-633-658-670-270500- MARINE OBSERVATIONS STATION/POSITION TIME TEMP WIND PRES WAVE SWELL AIR SEA DIR/SP/G HT/PER HT/PER (UTC) (F) (DEG/KT/KT) (MB) (FT/S) (FT/S) CHESAPEAKE LIGHT NOT AVBL 64 E VA BEACH 0350 81 81 220/ 10/ 12 1017.8 2/ 7 2/ 7 DUCK 0400 81 75 220/ 8/ 12 1017.9 2 E DUCK 0311 79 N/A 2/ 8 OREGON INLET 0400 81 82 180/ 8/ 9 1018.3 13E OREGON INLT 0400 80 N/A 2/ 7 2/ 7 HATTERAS CG 0400 81 83 160/ 7/ 8 1018.1 DIAMOND BUOY 0350 82 85 160/ 6/ 8 1018.8 2/ 8 2/ 8 CAPE LOOKOUT 0400 81 120/ 5/ 6 1018.4 BEAUFORT LAB 0400 80 82 160/ 4/ 5 1018.0 30 SE NEW RVR IN 0408 82 84 120/ 6/ 10 1018.5 30 SE NEW RVR IN 0325 84 N/A 2/11 2/11 27 SE WRIGHTSVLE 0408 82 84 110/ 6/ 10 1018.6 5 SE WRIGHTSVLE NOT AVBL 225 S CAPE HAT 0350 82 84 90/ 12/ 14 1016.8 5/ 9 3/ 9 41 SE CHARLESTON 0350 82 83 90/ 6/ 8 1017.8 3/ 6 2/ 6 $$

USA.gov is the U.S. government's official web portal to all federal, state and local government web resources and services.